TimeEDT,TemperatureF,Dew PointF,Humidity,Sea Level PressureIn,VisibilityMPH,Wind Direction,Wind SpeedMPH,Gust SpeedMPH,PrecipitationIn,Events,Conditions,WindDirDegrees,DateUTC
12:53 AM,71.1,62.1,73,29.83,10.0,South,4.6,-,N/A,,Clear,180,2013-05-22 04:53:00
1:53 AM,71.1,63.0,75,29.81,10.0,SSW,5.8,-,N/A,,Clear,200,2013-05-22 05:53:00
2:53 AM,70.0,63.0,78,29.80,10.0,South,4.6,-,N/A,,Clear,190,2013-05-22 06:53:00
3:53 AM,70.0,63.0,78,29.81,10.0,South,4.6,-,N/A,,Mostly Cloudy,190,2013-05-22 07:53:00
4:11 AM,69.8,64.4,83,29.85,1.8,SW,6.9,-,0.11,Rain,Heavy Rain,220,2013-05-22 08:11:00
4:22 AM,68.0,64.4,88,29.84,3.0,South,4.6,-,0.18,Rain,Light Rain,170,2013-05-22 08:22:00
4:53 AM,68.0,64.0,87,29.81,10.0,Variable,3.5,-,0.18,,Overcast,0,2013-05-22 08:53:00
5:53 AM,66.9,64.0,90,29.82,10.0,Variable,3.5,-,0.00,,Overcast,0,2013-05-22 09:53:00
6:53 AM,66.9,63.0,87,29.83,10.0,Calm,Calm,-,N/A,,Mostly Cloudy,0,2013-05-22 10:53:00
7:53 AM,66.9,63.0,87,29.84,10.0,South,5.8,-,N/A,,Clear,190,2013-05-22 11:53:00
8:53 AM,70.0,63.0,78,29.85,10.0,SSW,9.2,-,N/A,,Clear,200,2013-05-22 12:53:00
9:53 AM,71.1,62.1,73,29.85,10.0,South,6.9,-,N/A,,Mostly Cloudy,180,2013-05-22 13:53:00
10:53 AM,75.0,63.0,66,29.84,10.0,SSW,9.2,-,N/A,,Partly Cloudy,210,2013-05-22 14:53:00
11:53 AM,77.0,63.0,62,29.83,10.0,SSW,12.7,19.6,N/A,,Partly Cloudy,200,2013-05-22 15:53:00
12:53 PM,79.0,62.1,56,29.80,10.0,SSW,11.5,23.0,N/A,,Partly Cloudy,210,2013-05-22 16:53:00
1:53 PM,82.0,62.1,51,29.78,10.0,SSW,12.7,20.7,N/A,,Partly Cloudy,200,2013-05-22 17:53:00
2:53 PM,84.0,61.0,46,29.75,10.0,SSW,12.7,23.0,N/A,,Partly Cloudy,210,2013-05-22 18:53:00
3:53 PM,84.0,59.0,43,29.73,10.0,SSW,17.3,26.5,N/A,,Partly Cloudy,200,2013-05-22 19:53:00
4:53 PM,82.0,57.9,44,29.72,10.0,SW,10.4,21.9,N/A,,Mostly Cloudy,220,2013-05-22 20:53:00
5:53 PM,82.0,57.9,44,29.72,10.0,SW,11.5,21.9,N/A,,Partly Cloudy,220,2013-05-22 21:53:00
6:53 PM,79.0,57.0,47,29.73,10.0,SW,10.4,23.0,N/A,,Mostly Cloudy,230,2013-05-22 22:53:00
7:53 PM,78.1,55.9,46,29.73,10.0,SSW,12.7,-,N/A,,Clear,200,2013-05-22 23:53:00
8:53 PM,75.9,55.0,48,29.74,10.0,South,6.9,19.6,N/A,,Partly Cloudy,190,2013-05-23 00:53:00
9:53 PM,72.0,61.0,68,29.75,10.0,South,5.8,-,N/A,,Clear,190,2013-05-23 01:53:00
10:53 PM,70.0,62.1,76,29.77,10.0,SSW,8.1,-,N/A,,Scattered Clouds,200,2013-05-23 02:53:00
11:53 PM,69.1,61.0,75,29.75,10.0,South,8.1,-,0.00,Rain,Light Rain,190,2013-05-23 03:53:00